Location: Albany
(35.0000°S, 118.0000°E)
Time: 19:14:15
(UTC-05:00)

Atlas Centaur 2 - Visible Passes

Search period start: 05 February 2016 00:00
Search period end: 15 February 2016 00:00
Orbit: 459 x 1317 km, 30.4° (Epoch: 04 February)

Date Brightness Start Highest point End Pass type
(mag) Time Alt. Az. Time Alt. Az. Time Alt. Az.
06 Feb 5.2 15:46:36 10° NNE 15:49:06 12° NE 15:51:38 10° NE visible
07 Feb 5.0 15:41:49 10° N 15:46:03 15° NE 15:50:25 10° ENE visible
08 Feb 4.8 15:37:50 10° N 15:42:59 19° NE 15:48:26 10° ENE visible
09 Feb 4.6 15:34:11 10° NNW 15:39:56 23° NNE 15:46:08 10° ENE visible
10 Feb 4.4 15:30:46 10° NNW 15:36:52 27° NNE 15:43:37 10° E visible
11 Feb 4.1 15:28:05 12° NNW 15:33:51 31° NNE 15:41:00 10° E visible
12 Feb 4.8 13:42:55 12° NE 13:42:55 12° NE 13:44:59 10° ENE visible
12 Feb 3.9 15:25:36 15° NNW 15:30:51 36° NNE 15:38:15 10° E visible
13 Feb 4.6 13:40:24 15° NE 13:40:24 15° NE 13:43:17 10° ENE visible
13 Feb 3.6 15:23:04 18° NW 15:27:52 40° NNE 15:35:27 10° E visible
14 Feb 4.5 13:37:51 17° NE 13:37:51 17° NE 13:41:04 10° ENE visible
14 Feb 3.4 15:20:32 21° NW 15:24:55 45° NNE 15:32:36 10° E visible
